User: anonymous   Login
Location: Bergen
(60.3910°N, 5.3250°E)
Time: 16:24:23
(UTC+02:00)
Language:

Cosmos 1943 - Orbit

View from above orbital plane
View from above orbital plane
View from above satellite
View from above satellite

Ground track
Ground track

The orbit data is extracted from the following two-line orbital elements,

1 19119U 88039A   14295.50681774 -.00000143  00000-0 -49372-4 0  2765
2 19119 071.0045 335.8427 0008880 087.7406 013.5379 14.14960044365069
Epoch (UTC): 22 October 2014 12:09:49
Eccentricity: 0.0008880
inclination: 71.0045°
perigee height: 836 km
apogee height: 849 km
right ascension of ascending node: 335.8427°
argument of perigee: 87.7406°
revolutions per day: 14.14960044
mean anomaly at epoch: 13.5379°
orbit number at epoch: 36506

The dashed part of the orbit path shows where the satellite is in the earth's shadow,  

DLR